| time (UTC) | temp C | wind direction | speed KPH | gust KPH | rain 1hr cm | rain 24hr cm | rain mn cm | humidity % | barometer mb |
| 20260505153054 | 25 | 256 | 3.2 | 14.5 | 0.00 | 0.00 | 0.00 | 43 | 1013.3 |
| 20260505151550 | 24 | 310 | 4.8 | 11.3 | 0.00 | 0.00 | 0.00 | 44 | 1013.3 |
| 20260505124522 | 18 | 271 | 0.0 | 8.0 | 0.00 | 0.00 | 0.00 | 56 | 1013.5 |
| 20260505123019 | 18 | 270 | 1.6 | 8.0 | 0.00 | 0.00 | 0.00 | 57 | 1013.6 |
| 20260505121515 | 17 | 245 | 3.2 | 12.9 | 0.00 | 0.00 | 0.00 | 58 | 1013.4 |
| 20260505120016 | 16 | 166 | 0.0 | 4.8 | 0.00 | 0.00 | 0.00 | 60 | 1013.3 |
| 20260505114512 | 16 | 287 | 0.0 | 8.0 | 0.00 | 0.00 | 0.00 | 60 | 1013.2 |
| 20260505113010 | 16 | 257 | 1.6 | 4.8 | 0.00 | 0.00 | 0.00 | 60 | 1013.0 |
| 20260505111508 | 16 | 236 | 0.0 | 11.3 | 0.00 | 0.00 | 0.00 | 61 | 1013.0 |
| 20260505101556 | -17 | 0.0 | 0.0 | 0.00 | 0.00 | 0.00 | 1012.5 | ||
| 20260505100055 | -17 | 0.0 | 0.0 | 0.00 | 0.00 | 0.00 | 1012.5 | ||
| 20260505094554 | -17 | 0.0 | 0.0 | 0.00 | 0.00 | 0.00 | 1012.4 | ||
| 20260505093052 | -17 | 0.0 | 0.0 | 0.00 | 0.00 | 0.00 | 1012.5 | ||
| 20260505091606 | -17 | 0.0 | 0.0 | 0.00 | 0.00 | 0.00 | 1012.4 | ||
| 20260505090045 | -17 | 0.0 | 0.0 | 0.00 | 0.00 | 0.00 | 1012.4 | ||
| 20260505084539 | 15 | 195 | 1.6 | 11.3 | 0.00 | 0.00 | 0.00 | 60 | 1012.3 |
| 20260505083036 | 15 | 241 | 1.6 | 9.7 | 0.00 | 0.00 | 0.00 | 60 | 1012.2 |
| 20260505081538 | 16 | 273 | 0.0 | 4.8 | 0.00 | 0.00 | 0.00 | 60 | 1012.1 |
| 20260505080035 | 16 | 271 | 1.6 | 6.4 | 0.00 | 0.00 | 0.00 | 59 | 1012.1 |
| 20260505074531 | 16 | 210 | 0.0 | 6.4 | 0.00 | 0.00 | 0.00 | 58 | 1012.1 |
| 20260505073031 | 16 | 252 | 1.6 | 11.3 | 0.00 | 0.00 | 0.00 | 58 | 1012.1 |
| 20260505071528 | 16 | 217 | 1.6 | 8.0 | 0.00 | 0.00 | 0.00 | 58 | 1011.9 |
| 20260505070026 | 16 | 248 | 1.6 | 6.4 | 0.00 | 0.00 | 0.00 | 58 | 1011.9 |
| 20260505064525 | 16 | 284 | 1.6 | 8.0 | 0.00 | 0.00 | 0.00 | 58 | 1011.8 |
| 20260505063024 | 16 | 274 | 3.2 | 11.3 | 0.00 | 0.00 | 0.00 | 59 | 1011.8 |
| 20260505061526 | 16 | 212 | 0.0 | 4.8 | 0.00 | 0.00 | 0.00 | 58 | 1011.8 |
| 20260505060023 | 16 | 295 | 0.0 | 3.2 | 0.00 | 0.00 | 0.00 | 58 | 1011.7 |
| 20260505054518 | 17 | 264 | 0.0 | 3.2 | 0.00 | 0.00 | 0.00 | 58 | 1011.6 |
| 20260505053015 | 17 | 249 | 0.0 | 3.2 | 0.00 | 0.00 | 0.00 | 57 | 1011.5 |
| 20260505051530 | 17 | 299 | 0.0 | 4.8 | 0.00 | 0.00 | 0.00 | 56 | 1011.5 |
| 20260505041510 | 17 | 228 | 0.0 | 6.4 | 0.00 | 0.00 | 0.00 | 57 | 1011.4 |
| 20260505040012 | 17 | 277 | 0.0 | 1.6 | 0.00 | 0.00 | 0.00 | 57 | 1011.4 |
| 20260505034508 | 17 | 248 | 0.0 | 1.6 | 0.00 | 0.00 | 0.00 | 56 | 1011.5 |
| 20260505033007 | 18 | 267 | 0.0 | 4.8 | 0.00 | 0.00 | 0.00 | 55 | 1011.5 |
| 20260505031506 | 18 | 248 | 0.0 | 4.8 | 0.00 | 0.00 | 0.00 | 55 | 1011.6 |
| 20260505030006 | 18 | 228 | 0.0 | 6.4 | 0.00 | 0.00 | 0.00 | 54 | 1011.7 |
| 20260505024509 | 18 | 274 | 0.0 | 3.2 | 0.00 | 0.00 | 0.00 | 54 | 1011.7 |
| 20260505023005 | 18 | 271 | 0.0 | 4.8 | 0.00 | 0.00 | 0.00 | 52 | 1011.5 |
| 20260505021503 | 19 | 262 | 0.0 | 3.2 | 0.00 | 0.00 | 0.00 | 51 | 1011.5 |
| 20260505020006 | 19 | 221 | 0.0 | 1.6 | 0.00 | 0.00 | 0.00 | 50 | 1011.5 |
| 20260505014502 | 19 | 249 | 0.0 | 1.6 | 0.00 | 0.00 | 0.00 | 50 | 1011.4 |
| 20260505013002 | 20 | 210 | 0.0 | 1.6 | 0.00 | 0.00 | 0.00 | 48 | 1011.3 |
| 20260505011601 | 20 | 210 | 0.0 | 3.2 | 0.00 | 0.00 | 0.00 | 46 | 1011.2 |
| 20260505010113 | 20 | 255 | 0.0 | 6.4 | 0.00 | 0.00 | 0.00 | 44 | 1011.1 |
| 20260505004559 | 21 | 274 | 0.0 | 6.4 | 0.00 | 0.00 | 0.00 | 43 | 1010.9 |
| 20260505003100 | 21 | 243 | 0.0 | 9.7 | 0.00 | 0.00 | 0.00 | 42 | 1010.8 |
| 20260505001604 | 21 | 279 | 3.2 | 12.9 | 0.00 | 0.00 | 0.00 | 41 | 1010.8 |
| 20260504234556 | 22 | 238 | 3.2 | 9.7 | 0.00 | 0.00 | 0.00 | 40 | 1010.7 |
| 20260504233107 | 22 | 261 | 1.6 | 9.7 | 0.00 | 0.00 | 0.00 | 39 | 1010.6 |
| 20260504231600 | 23 | 238 | 1.6 | 8.0 | 0.00 | 0.00 | 0.00 | 38 | 1010.5 |
| 20260504230058 | 23 | 253 | 1.6 | 11.3 | 0.00 | 0.00 | 0.00 | 37 | 1010.5 |
| 20260504224554 | 24 | 238 | 3.2 | 14.5 | 0.00 | 0.00 | 0.00 | 36 | 1010.5 |
| 20260504223053 | 24 | 269 | 1.6 | 16.1 | 0.00 | 0.00 | 0.00 | 36 | 1010.5 |
| 20260504221552 | 25 | 288 | 3.2 | 11.3 | 0.00 | 0.00 | 0.00 | 35 | 1010.6 |
| 20260504220051 | 25 | 304 | 3.2 | 11.3 | 0.00 | 0.00 | 0.00 | 35 | 1010.6 |
| 20260504214555 | 25 | 291 | 3.2 | 14.5 | 0.00 | 0.00 | 0.00 | 34 | 1010.6 |
| 20260504213050 | 25 | 266 | 8.0 | 19.3 | 0.00 | 0.00 | 0.00 | 34 | 1010.5 |
| 20260504211547 | 25 | 271 | 6.4 | 14.5 | 0.00 | 0.00 | 0.00 | 34 | 1010.6 |
| 20260504210059 | 25 | 281 | 1.6 | 14.5 | 0.00 | 0.00 | 0.00 | 33 | 1010.6 |
| 20260504204554 | 25 | 238 | 3.2 | 16.1 | 0.00 | 0.00 | 0.00 | 34 | 1010.6 |
| 20260504203101 | 24 | 222 | 8.0 | 22.5 | 0.00 | 0.00 | 0.00 | 33 | 1010.7 |
| 20260504201543 | 25 | 245 | 4.8 | 12.9 | 0.00 | 0.00 | 0.00 | 33 | 1010.8 |
| 20260504200042 | 23 | 257 | 6.4 | 16.1 | 0.00 | 0.00 | 0.00 | 34 | 1011.1 |
| 20260504194541 | 25 | 338 | 11.3 | 22.5 | 0.00 | 0.00 | 0.00 | 32 | 1011.1 |
| 20260504193040 | 25 | 286 | 9.7 | 25.7 | 0.00 | 0.00 | 0.00 | 31 | 1011.2 |
| 20260504191540 | 26 | 257 | 3.2 | 12.9 | 0.00 | 0.00 | 0.00 | 31 | 1011.4 |
| 20260504190044 | 25 | 238 | 3.2 | 14.5 | 0.00 | 0.00 | 0.00 | 31 | 1011.6 |
| 20260504184534 | 25 | 233 | 3.2 | 17.7 | 0.00 | 0.00 | 0.00 | 31 | 1011.9 |
| 20260504183032 | 25 | 260 | 3.2 | 14.5 | 0.00 | 0.00 | 0.00 | 31 | 1012.2 |
| 20260504181526 | 25 | 307 | 3.2 | 11.3 | 0.00 | 0.00 | 0.00 | 30 | 1012.4 |
| 20260504180023 | 24 | 253 | 3.2 | 24.1 | 0.00 | 0.00 | 0.00 | 31 | 1012.7 |
| 20260504174521 | 24 | 349 | 3.2 | 11.3 | 0.00 | 0.00 | 0.00 | 30 | 1012.8 |
| 20260504173018 | 23 | 298 | 3.2 | 16.1 | 0.00 | 0.00 | 0.00 | 32 | 1012.9 |
| 20260504171517 | 24 | 239 | 4.8 | 12.9 | 0.00 | 0.00 | 0.00 | 30 | 1013.3 |